Terminal Aerodrome Forecast
Issued by NWS Caribou, ME

Home | Current Version | Previous Version | Text Only | Print | Product List | Glossary On
Versions: 1 2 3 4 5 6 7 8 9 10 11 12 13 14 15
002
FTUS41 KCAR 271754 AAC
TAFCAR
TAF AMD
KCAR 271754Z 2718/2818 23006KT P6SM BKN250
     FM272200 22006KT P6SM VCTS BKN070CB
     FM280100 22004KT P6SM BKN120
     FM280600 VRB03KT 2SM BR BKN250
     FM281200 00000KT P6SM BKN250=

USA.gov is the U.S. government's official web portal to all federal, state and local government web resources and services.